Terminal Aerodrome Forecast
Issued by NWS Blacksburg, VA

Current Version | Previous Version | Graphics & Text | Print | Product List | Glossary On
Versions: 1 2 3 4 5 6 7 8 9 10 11 12 13 14 15 16 17 18 19 20 21 22 23 24 25 26 27 28 29 30 31 32 33 34 35 36 37 38
000
FTUS41 KRNK 180522 CCA
TAFBLF
TAF COR
KBLF 180522Z 1805/1906 29015G25KT P6SM OVC010
     FM181400 29008KT P6SM SCT007 BKN011
     FM181530 29005KT P6SM FEW020 BKN200
     FM181900 28005KT P6SM OVC090=

USA.gov is the U.S. government's official web portal to all federal, state and local government web resources and services.